Change the Weather History Date:

Saturday, September 14, 2013

  Actual Average (KABE) Record (KABE)
Temperature  
Mean Temperature 53 °F 65 °F  
Max Temperature 62 °F 76 °F 91 °F (2008)
Min Temperature 44 °F 54 °F 40 °F (1946)
Degree Days  
Heating Degree Days 12 3  
Month to date heating degree days 23  
Since 1 July heating degree days 34  
Cooling Degree Days 0 2  
Month to date cooling degree days 50  
Year to date cooling degree days 729  
Growing Degree Days 3 (Base 50)    
Moisture  
Dew Point 46 °F    
Average Humidity 73    
Maximum Humidity 100    
Minimum Humidity 55    
Precipitation  
Precipitation 0.00 in 0.16 in 3.24 in (1973)
Month to date precipitation 1.90  
Year to date precipitation 31.67  
Snow  
Snow 0.00 in 0.00 in 0.00 in (2002)
Month to date snowfall 0.0  
Since 1 July snowfall 0.0  
Since 1 September snowfall 0.0  
Snow Depth -    
Sea Level Pressure  
Sea Level Pressure 30.05 in    
Wind  
Wind Speed 5 mph (NW)    
Max Wind Speed 13 mph    
Max Gust Speed 20 mph    
Visibility 10 miles    
Events      
T = Trace of Precipitation, MM = Missing Value Source: NWS Daily Summary

Daily Weather History Graph

Daily Weather History Graph

Search for Another Location

Airport or City:

Trip Planner

Search our weather history database for the weather conditions in past years. The results will help you decide how hot, cold, wet, or windy it might be!

Date:

Astronomy

Sep. 14, 2013 Rise Set
Actual Time 6:41 AM EDT 7:11 PM EDT
Civil Twilight 6:14 AM EDT 7:39 PM EDT
Nautical Twilight 5:41 AM EDT 8:11 PM EDT
Astronomical Twilight 5:08 AM EDT 8:44 PM EDT
Moon 3:51 PM EDT (9/14) 1:09 AM EDT (9/14)
Length of Visible Light 13h 24m
Length of Day
12h 30m
Waxing Gibbous, 72% of the Moon is Illuminated
Sep 14
Waxing Gibbous
Sep 19
Full
Sep 26
Last Quarter
Oct 4
New
Oct 11
First Quarter

Hourly Weather History & Observations

Time (EDT) Temp. Dew Point Humidity Pressure Visibility Wind Dir Wind Speed Gust Speed Precip Events Conditions
12:15 AM 55.4 °F 46.4 °F 72% 29.92 in 10.0 mi WNW 5.8 mph - N/A   Clear
12:35 AM 55.4 °F 46.4 °F 72% 29.93 in 10.0 mi Calm Calm - N/A   Clear
12:55 AM 55.4 °F 46.4 °F 72% 29.93 in 10.0 mi North 4.6 mph - N/A   Scattered Clouds
1:15 AM 53.6 °F 46.4 °F 77% 29.94 in 10.0 mi WNW 3.5 mph - N/A   Partly Cloudy
1:35 AM 53.6 °F 46.4 °F 77% 29.94 in 10.0 mi West 3.5 mph - N/A   Clear
1:55 AM 53.6 °F 46.4 °F 77% 29.94 in 10.0 mi West 3.5 mph - N/A   Clear
2:15 AM 53.6 °F 46.4 °F 77% 29.94 in 10.0 mi WNW 5.8 mph - N/A   Clear
2:35 AM 53.6 °F 44.6 °F 72% 29.94 in 10.0 mi WNW 5.8 mph - N/A   Clear
2:55 AM 53.6 °F 44.6 °F 72% 29.94 in 10.0 mi WNW 5.8 mph - N/A   Clear
3:15 AM 53.6 °F 44.6 °F 72% 29.94 in 10.0 mi WNW 6.9 mph - N/A   Clear
3:35 AM 53.6 °F 44.6 °F 72% 29.94 in 10.0 mi WNW 5.8 mph - N/A   Clear
3:55 AM 53.6 °F 44.6 °F 72% 29.94 in 10.0 mi West 3.5 mph - N/A   Clear
4:15 AM 53.6 °F 46.4 °F 77% 29.94 in 10.0 mi Calm Calm - N/A   Clear
4:35 AM 50.0 °F 46.4 °F 87% 29.94 in 10.0 mi Calm Calm - N/A   Clear
4:55 AM 51.8 °F 44.6 °F 76% 29.95 in 10.0 mi NNW 3.5 mph - N/A   Clear
5:15 AM 50.0 °F 44.6 °F 82% 29.95 in 10.0 mi WNW 5.8 mph - N/A   Scattered Clouds
5:35 AM 53.6 °F 46.4 °F 77% 29.96 in 10.0 mi NW 4.6 mph - N/A   Mostly Cloudy
5:55 AM 53.6 °F 46.4 °F 77% 29.97 in 10.0 mi WNW 4.6 mph - N/A   Mostly Cloudy
6:15 AM 53.6 °F 46.4 °F 77% 29.97 in 10.0 mi WNW 3.5 mph - N/A   Mostly Cloudy
6:35 AM 53.6 °F 46.4 °F 77% 29.98 in 10.0 mi NW 4.6 mph - N/A   Overcast
6:55 AM 51.8 °F 46.4 °F 82% 29.99 in 10.0 mi Calm Calm - N/A   Mostly Cloudy
7:15 AM 51.8 °F 46.4 °F 82% 30.00 in 10.0 mi WNW 4.6 mph - N/A   Clear
7:35 AM 53.6 °F 46.4 °F 77% 30.00 in 10.0 mi WNW 4.6 mph - N/A   Clear
7:55 AM 53.6 °F 46.4 °F 77% 30.01 in 10.0 mi WNW 8.1 mph - N/A   Clear
8:15 AM 55.4 °F 46.4 °F 72% 30.02 in 10.0 mi NW 8.1 mph - N/A   Clear
8:35 AM 55.4 °F 44.6 °F 67% 30.02 in 10.0 mi NW 12.7 mph 18.4 mph N/A   Clear
8:55 AM 55.4 °F 44.6 °F 67% 30.02 in 10.0 mi WNW 10.4 mph - N/A   Partly Cloudy
9:15 AM 57.2 °F 44.6 °F 63% 30.03 in 10.0 mi NW 10.4 mph - N/A   Partly Cloudy
9:35 AM 57.2 °F 44.6 °F 63% 30.04 in 10.0 mi North 10.4 mph - N/A   Mostly Cloudy
9:55 AM 57.2 °F 46.4 °F 67% 30.04 in 10.0 mi WNW 5.8 mph 16.1 mph N/A   Overcast
10:15 AM 57.2 °F 44.6 °F 63% 30.04 in 10.0 mi WNW 12.7 mph 19.6 mph N/A   Mostly Cloudy
10:35 AM 59.0 °F 44.6 °F 59% 30.05 in 10.0 mi NW 10.4 mph 19.6 mph N/A   Partly Cloudy
10:55 AM 59.0 °F 44.6 °F 59% 30.05 in 10.0 mi North 12.7 mph 18.4 mph N/A   Scattered Clouds
11:15 AM 59.0 °F 46.4 °F 63% 30.05 in 10.0 mi NNW 12.7 mph 17.3 mph N/A   Overcast
11:35 AM 57.2 °F 46.4 °F 67% 30.06 in 10.0 mi WNW 9.2 mph 16.1 mph N/A   Overcast
11:55 AM 59.0 °F 46.4 °F 63% 30.06 in 10.0 mi NW 8.1 mph - N/A   Overcast
12:15 PM 60.8 °F 46.4 °F 59% 30.05 in 10.0 mi North 9.2 mph 18.4 mph N/A   Overcast
12:35 PM 60.8 °F 44.6 °F 55% 30.06 in 10.0 mi WNW 9.2 mph 16.1 mph N/A   Overcast
12:55 PM 62.6 °F 46.4 °F 55% 30.06 in 10.0 mi NNW 9.2 mph 17.3 mph N/A   Mostly Cloudy
1:15 PM 60.8 °F 46.4 °F 59% 30.06 in 10.0 mi West 9.2 mph 17.3 mph N/A   Overcast
1:35 PM 59.0 °F 46.4 °F 63% 30.07 in 10.0 mi WNW 10.4 mph - N/A   Mostly Cloudy
1:55 PM 59.0 °F 46.4 °F 63% 30.06 in 10.0 mi West 6.9 mph - N/A   Mostly Cloudy
2:15 PM 59.0 °F 46.4 °F 63% 30.07 in 10.0 mi WNW 10.4 mph 16.1 mph N/A   Mostly Cloudy
2:35 PM 59.0 °F 46.4 °F 63% 30.06 in 10.0 mi West 8.1 mph - N/A   Mostly Cloudy
2:55 PM 59.0 °F 46.4 °F 63% 30.07 in 10.0 mi WNW 9.2 mph - N/A   Overcast
3:15 PM 59.0 °F 46.4 °F 63% 30.07 in 10.0 mi WNW 9.2 mph - N/A   Mostly Cloudy
3:35 PM 59.0 °F 46.4 °F 63% 30.06 in 10.0 mi WNW 6.9 mph - N/A   Mostly Cloudy
3:55 PM 59.0 °F 46.4 °F 63% 30.06 in 10.0 mi NNE 9.2 mph - N/A   Mostly Cloudy
4:15 PM 59.0 °F 46.4 °F 63% 30.07 in 10.0 mi WNW 5.8 mph - N/A   Mostly Cloudy
4:35 PM 59.0 °F 46.4 °F 63% 30.08 in 10.0 mi WNW 10.4 mph - N/A   Mostly Cloudy
4:55 PM 59.0 °F 46.4 °F 63% 30.09 in 10.0 mi WNW 6.9 mph - N/A   Overcast
5:15 PM 59.0 °F 46.4 °F 63% 30.09 in 10.0 mi NNW 5.8 mph - N/A   Mostly Cloudy
5:35 PM 59.0 °F 46.4 °F 63% 30.10 in 10.0 mi NW 6.9 mph - N/A   Overcast
5:55 PM 57.2 °F 46.4 °F 67% 30.10 in 10.0 mi WNW 4.6 mph - N/A   Overcast
6:15 PM 57.2 °F 46.4 °F 67% 30.11 in 10.0 mi NNW 8.1 mph - N/A   Overcast
6:35 PM 57.2 °F 46.4 °F 67% 30.11 in 10.0 mi WNW 3.5 mph - N/A   Mostly Cloudy
6:55 PM 57.2 °F 46.4 °F 67% 30.11 in 10.0 mi North 5.8 mph - N/A   Mostly Cloudy
7:15 PM 55.4 °F 46.4 °F 72% 30.12 in 10.0 mi NNW 4.6 mph - N/A   Overcast
7:35 PM 55.4 °F 46.4 °F 72% 30.12 in 10.0 mi NNW 3.5 mph - N/A   Overcast
7:55 PM 55.4 °F 46.4 °F 72% 30.13 in 10.0 mi WNW 3.5 mph - N/A   Overcast
8:15 PM 53.6 °F 46.4 °F 77% 30.14 in 10.0 mi Calm Calm - N/A   Mostly Cloudy
8:35 PM 51.8 °F 46.4 °F 82% 30.15 in 10.0 mi NNW 3.5 mph - N/A   Partly Cloudy
8:55 PM 50.0 °F 46.4 °F 87% 30.15 in 10.0 mi Calm Calm - N/A   Clear
9:15 PM 48.2 °F 44.6 °F 87% 30.15 in 10.0 mi North - - N/A   Clear
9:35 PM 48.2 °F 44.6 °F 87% 30.15 in 10.0 mi Calm Calm - N/A   Clear
9:55 PM 46.4 °F 44.6 °F 93% 30.15 in 10.0 mi Calm Calm - N/A   Clear
10:15 PM 46.4 °F 44.6 °F 93% 30.16 in 10.0 mi Calm Calm - N/A   Clear
10:35 PM 46.4 °F 44.6 °F 93% 30.16 in 10.0 mi Calm Calm - N/A   Clear
10:55 PM 44.6 °F 44.6 °F 100% 30.16 in 10.0 mi Calm Calm - N/A   Clear
11:15 PM 44.6 °F 44.6 °F 100% 30.17 in 10.0 mi Calm Calm - N/A   Clear
11:35 PM 44.6 °F 44.6 °F 100% 30.17 in 10.0 mi Calm Calm - N/A   Clear
11:55 PM 44.6 °F 42.8 °F 93% 30.18 in 10.0 mi Calm Calm - N/A   Clear